Flag for Canada Weather past 2 weeks in Greater Sudbury, Ontario, Canada

Now
72 °F

Partly sunny.


Feels Like: 76 °F
Forecast: N/A
Wind: 15 mph from West

Location: Sudbury

Current Time: Jul 30, 2015 at 5:20:09 PM

Latest Report: Jul 30, 2015 at 5:00 PM


Visibility: 20 mi

Pressure: 29.72 "Hg

Humidity: 57%

Dew point: 55 °F

Location of Greater SudburyLocation

Historic Weather in Greater Sudbury — Graph

°F

Greater Sudbury temperature yesterday

Maximum temperature yesterday: 88 °F (at 3:00 PM)
Minimum temperature yesterday: 66 °F (at 11:00 PM)
Average temperature yesterday: 75 °F

Past Weeks' High & Low Weather Summary

 TemperatureHumidityPressure
High91 °F (Jul 28, 4:00 PM)100% (Jul 16, 7:00 AM)30.12 "Hg (Jul 16, 7:00 AM)
Low50 °F (Jul 16, 7:00 AM)27% (Jul 24, 6:00 PM)29.54 "Hg (Jul 20, 6:00 PM)
Average68 °F69%29.85 "Hg
* Reported Jul 15 4:00 PM — Jul 30 4:00 PM, Greater Sudbury, Weather by CustomWeather, © 2015

Note: Actual official high and low records may vary slightly from our data, if they occured in-between our weather recording intervals... More about our weather records

Advertising

Greater Sudbury weather history for previous 24 hours

 ConditionsComfort  
Time TempWeatherWind HumidityBarometerVisibility
4:00 PM
Thu, Jul 30
72 °FPartly sunny.12 mph61%29.72 "Hg20 mi
3:00 PM73 °FPartly sunny.18 mph33%29.72 "Hg20 mi
2:00 PM75 °FPartly sunny.16 mph54%29.71 "Hg20 mi
1:00 PM75 °FPartly sunny.18 mph47%29.71 "Hg20 mi
12:00 PM73 °FPartly sunny.14 mph57%29.70 "Hg20 mi
11:00 AM73 °FPartly sunny.18 mph61%29.71 "Hg20 mi
10:00 AM72 °FPassing clouds.16 mph69%29.72 "Hg20 mi
9:00 AM70 °FPassing clouds.15 mph73%29.72 "Hg20 mi
8:00 AM64 °FBroken clouds.10 mph83%29.74 "Hg20 mi
7:00 AM61 °FPassing clouds.7 mph88%29.74 "Hg20 mi
6:00 AM59 °FPassing clouds.7 mph94%29.74 "Hg20 mi
5:00 AM61 °FPassing clouds.8 mph88%29.73 "Hg15 mi
4:00 AM59 °FPassing clouds.5 mph94%29.74 "Hg15 mi
3:00 AM61 °FPassing clouds.6 mph88%29.74 "Hg15 mi
2:00 AM63 °FPassing clouds.5 mph83%29.75 "Hg15 mi
1:00 AM63 °FPassing clouds.5 mph94%29.75 "Hg15 mi
12:00 AM64 °FClear.3 mph94%29.74 "Hg15 mi
11:00 PM
Wed, Jul 29
66 °FClear.7 mph100%29.75 "Hg12 mi
10:00 PM68 °FPassing clouds.7 mph94%29.75 "Hg15 mi
9:00 PM70 °FBroken clouds.13 mph88%29.75 "Hg15 mi
8:00 PM68 °FRain showers. Partly sunny.12 mph94%29.76 "Hg15 mi
7:00 PM77 °FSprinkles. Mostly cloudy.21 mph61%29.76 "Hg12 mi
6:00 PM81 °FSprinkles. Mostly cloudy.22 mph51%29.77 "Hg15 mi
5:00 PM82 °FOvercast.21 mph45%29.78 "Hg15 mi
Weather by CustomWeather, © 2015

See weather overviewHow to use our weather pages